Content
SEND FEEDBACK

Daily
Averages
Monthly
Summary
Canada

QUEBEC CITY, QUEBEC


Home > North America > Canada > Quebec
Elevation: 239 feet     Latitude: 46 48N     Longitude: 071 23W

WEATHER
 
SELECT A DAY
Number of Records: 192,519;   Date Range: 6/30/96 - 8/26/14
 
SHARE

PRINT THIS DATA

[ ← Previous Day ]
WEATHER ALMANAC - JANUARY 29, 2013
[ Next Day → ]
[ °C ]   °F
Weather ElementAverageHighLow
Temperature22.1 °F29 °F (1:00 pm)14 °F (1:00 am)
Dewpoint13.1 °F20 °F (10:00 pm) (7:00 pm)
Humidity67.7 %80 % (8:00 pm)48 % (1:00 pm)
Barometer29.18 in30.22 in (11:00 am) (7:00 pm)
Wind Speed5.4 mph15 mph (11:00 pm)
Weather ElementAverage
Visibility21.8 mi
Wind DirectionESE (104.5 °)

Weather ElementTotal
Precipitation---
Heating Degree Days43.5 (Base 65)
Averaged from 32 records on January 29, 2013
WEATHER CONDITIONS BREAKOUT
WIND DIRECTION BREAKOUT
WEATHER BY HOUR - JANUARY 29, 2013
[ °C ]   °F
Local TimeTemperatureDewpointHumidityBarometerVisibilityWind DirectionWind SpeedGust SpeedPrecipitationEventsConditions
1:00 AM14.0 °F9.0 °F73 %30.08 inWNW (300°)2.3 mph
1:00 AM15.8 °F6.8 °F68 %30.09 in15.0 miCalmOvercast
2:00 AM14.0 °F6.8 °F73 %30.09 in15.0 miWSW (250°)3.5 mphOvercast
3:00 AM15.8 °F8.6 °F73 %30.09 in15.0 miCalmOvercast
4:00 AM17.0 °F11.0 °F69 %30.10 inWest (260°)3.5 mph
4:00 AM17.6 °F10.4 °F73 %30.10 in15.0 miSW (230°)3.5 mphOvercast
5:00 AM17.6 °F8.6 °F68 %30.11 in15.0 miSW (220°)5.8 mphOvercast
6:00 AM17.6 °F8.6 °F68 %30.11 in15.0 miSW (220°)5.8 mphMostly Cloudy
7:00 AM19.4 °F10.4 °F68 %30.14 in30.0 miCalmOvercast
7:00 AM19.0 °F12.0 °F64 %30.13 inSW (220°)3.5 mph
8:00 AM19.4 °F10.4 °F68 %30.13 in30.0 miSW (230°)2.3 mphMostly Cloudy
9:00 AM19.4 °F10.4 °F68 %30.17 in30.0 miCalmMostly Cloudy
10:00 AM23.0 °F14.0 °F55 %30.19 inENE (60°)4.6 mph
10:00 AM23.0 °F12.2 °F63 %30.20 in30.0 miESE (110°)2.3 mphMostly Cloudy
11:00 AM23.0 °F12.2 °F63 %30.22 in30.0 miSSE (150°)2.3 mphMostly Cloudy
12:00 PM24.8 °F14.0 °F64 %30.18 in30.0 miEast (100°)4.6 mphOvercast
1:00 PM26.6 °F14.0 °F59 %30.17 in30.0 miCalmOvercast
1:00 PM29.0 °F17.0 °F48 %30.16 inCalm
2:00 PM26.6 °F15.8 °F64 %30.15 in30.0 miNE (40°)6.9 mphOvercast
3:00 PM26.6 °F15.8 °F64 %30.15 in30.0 miEast (80°)6.9 mphOvercast
4:00 PM27.0 °F16.0 °F52 %30.13 inEast (80°)6.9 mph
4:00 PM26.6 °F15.8 °F64 %30.14 in30.0 miENE (60°)6.9 mphMostly Cloudy
5:00 PM24.8 °F15.8 °F69 %30.12 in30.0 miENE (70°)8.1 mphMostly Cloudy
6:00 PM24.8 °F17.6 °F74 %30.11 in15.0 miENE (60°)10.4 mphMostly Cloudy
7:00 PM24.8 °F17.6 °F74 %30.10 in15.0 miNE (50°)12.7 mphMostly Cloudy
7:00 PM25.0 °F19.0 °F71 %30.10 inENE (70°)6.9 mph
8:00 PM23.0 °F17.6 °F80 %30.08 in15.0 miEast (80°)10.4 mphOvercast
9:00 PM23.0 °F17.6 °F80 %30.06 in15.0 miENE (60°)11.5 mphOvercast
10:00 PM25.0 °F20.0 °F73 %30.02 inENE (70°)6.9 mph
10:00 PM24.8 °F17.6 °F74 %30.02 in15.0 miENE (60°)9.2 mphOvercast
11:00 PM24.8 °F17.6 °F74 %29.99 in15.0 miNE (50°)15.0 mphOvercast
11:33 PM24.8 °F0.0 °F12.0 miENE (60°)10.4 mphRainLight Freezing Rain
Hourly data recorded from CYQB, located miles away from Quebec City, Quebec







STORIES FROM OUR PARTNERS